Location: Trento
(46.0670°N, 11.1330°E)
Time: 21:39:19
(UTC+01:00)

BlueWalker 3 - Visible Passes

Search period start: 03 December 2023 00:00
Search period end: 13 December 2023 00:00
Orbit: 489 x 503 km, 53.2° (Epoch: 03 December)

Date Brightness Start Highest point End Pass type
(mag) Time Alt. Az. Time Alt. Az. Time Alt. Az.
03 Dec 4.2 04:41:02 23° E 04:41:02 23° E 04:42:43 10° E visible
03 Dec 2.7 06:15:36 23° W 06:17:17 35° SW 06:20:47 10° SSE visible
04 Dec 5.1 04:19:34 13° E 04:19:34 13° E 04:20:03 10° E visible
04 Dec 2.6 05:54:08 34° WSW 05:54:38 36° SW 05:58:08 10° SSE visible
05 Dec 3.0 05:32:42 33° SSW 05:32:42 33° SSW 05:35:29 10° SSE visible
06 Dec 3.9 05:11:20 20° SSE 05:11:20 20° SSE 05:12:49 10° SSE visible
07 Dec 4.9 04:50:02 11° SSE 04:50:02 11° SSE 04:50:08 10° SSE visible
